Petersburg, AK

2:12 AM AKDT on October 01, 2016 (GMT -0800)
Johnson Petersburg

Weather History for PAPG - February, 2015

Change the Weather History Date:

Monday, February 2, 2015

  Actual Average Record
Temperature  
Mean Temperature 28 °F -  
Max Temperature 32 °F 34 °F 51 °F (1998)
Min Temperature 24 °F 26 °F 10 °F (2004)
Degree Days  
Heating Degree Days 37    
Moisture  
Dew Point 20 °F    
Average Humidity 71    
Maximum Humidity 86    
Minimum Humidity 48    
Precipitation  
Precipitation 0.00 in - - ()
Sea Level Pressure  
Sea Level Pressure 29.86 in    
Wind  
Wind Speed 2 mph (SW)    
Max Wind Speed 5 mph    
Max Gust Speed -    
Visibility 10 miles    
Events      
Averages and records for this station are not official NWS values.
T = Trace of Precipitation, MM = Missing Value Source: NWS Daily Summary

Daily Weather History Graph

Daily Weather History Graph

Search for Another Location

Airport or City:

Trip Planner

Search our weather history database for the weather conditions in past years. The results will help you decide how hot, cold, wet, or windy it might be!

Date:

Astronomy

Feb. 02, 2015 Rise Set
Actual Time 7:48 AM AKST 4:23 PM AKST
Civil Twilight 7:06 AM AKST 5:05 PM AKST
Nautical Twilight 6:20 AM AKST 5:51 PM AKST
Astronomical Twilight 5:36 AM AKST 6:36 PM AKST
Moon 3:44 PM AKST (2/2) 6:42 AM AKST (2/2)
Length of Visible Light 9h 59m
Length of Day
8h 35m
Waxing Gibbous, 99% of the Moon is Illuminated
Feb 2
Waxing Gibbous
Feb 3
Full
Feb 11
Last Quarter
Feb 18
New
Feb 25
First Quarter

Hourly Weather History & Observations

Time (AKST) Temp. Windchill Dew Point Humidity Pressure Visibility Wind Dir Wind Speed Gust Speed Precip Events Conditions
12:56 AM 28.4 °F 24.6 °F 23.0 °F 80% 29.89 in 10.0 mi WSW 3.5 mph - N/A   Scattered Clouds
1:16 AM 28.4 °F - 24.8 °F 86% 29.89 in 10.0 mi Calm Calm - N/A   Partly Cloudy
1:56 AM 28.4 °F 24.6 °F 23.0 °F 80% 29.89 in 10.0 mi WSW 3.5 mph - N/A   Clear
2:16 AM 28.4 °F 23.3 °F 21.2 °F 74% 29.89 in 10.0 mi SW 4.6 mph - N/A   Clear
2:36 AM 28.4 °F 23.3 °F 21.2 °F 74% 29.89 in 10.0 mi South 4.6 mph - N/A   Clear
2:56 AM 28.4 °F - 19.4 °F 69% 29.89 in 10.0 mi Calm Calm - N/A   Clear
3:16 AM 26.6 °F - 21.2 °F 80% 29.89 in 10.0 mi Calm Calm - N/A   Clear
3:36 AM 28.4 °F 23.3 °F 21.2 °F 74% 29.88 in 10.0 mi West 4.6 mph - N/A   Clear
3:56 AM 28.4 °F - 21.2 °F 74% 29.88 in 10.0 mi Calm Calm - N/A   Clear
4:16 AM 28.4 °F 23.3 °F 21.2 °F 74% 29.87 in 10.0 mi SW 4.6 mph - N/A   Clear
4:36 AM 28.4 °F 23.3 °F 21.2 °F 74% 29.87 in 10.0 mi WSW 4.6 mph - N/A   Partly Cloudy
4:56 AM 28.4 °F 23.3 °F 21.2 °F 74% 29.88 in 10.0 mi West 4.6 mph - N/A   Clear
5:16 AM 28.4 °F - 21.2 °F 74% 29.87 in 10.0 mi Calm Calm - N/A   Partly Cloudy
5:36 AM 28.4 °F - 21.2 °F 74% 29.87 in 10.0 mi Calm Calm - N/A   Partly Cloudy
6:00 AM 28.4 °F - 23.0 °F 80% 29.86 in 10.0 mi Calm Calm - N/A   Scattered Clouds
6:16 AM 28.4 °F - 21.2 °F 74% 29.86 in 10.0 mi Calm Calm - N/A   Scattered Clouds
6:36 AM 28.4 °F 24.6 °F 21.2 °F 74% 29.86 in 10.0 mi WSW 3.5 mph - N/A   Scattered Clouds
6:56 AM 26.6 °F 21.2 °F 21.2 °F 80% 29.85 in 10.0 mi SW 4.6 mph - N/A   Mostly Cloudy
7:16 AM 26.6 °F 21.2 °F 21.2 °F 80% 29.85 in 10.0 mi SW 4.6 mph - N/A   Mostly Cloudy
7:56 AM 26.6 °F 22.6 °F 21.2 °F 80% 29.85 in 10.0 mi SW 3.5 mph - N/A   Mostly Cloudy
8:16 AM 26.6 °F 22.6 °F 21.2 °F 80% 29.86 in 10.0 mi SW 3.5 mph - N/A   Mostly Cloudy
8:36 AM 26.6 °F 22.6 °F 21.2 °F 80% 29.86 in 10.0 mi SW 3.5 mph - N/A   Mostly Cloudy
8:56 AM 26.6 °F 22.6 °F 21.2 °F 80% 29.86 in 10.0 mi SW 3.5 mph - N/A   Mostly Cloudy
9:16 AM 28.4 °F 23.3 °F 21.2 °F 74% 29.86 in 10.0 mi SW 4.6 mph - N/A   Mostly Cloudy
9:36 AM 26.6 °F 22.6 °F 21.2 °F 80% 29.85 in 10.0 mi SW 3.5 mph - N/A   Mostly Cloudy
9:56 AM 28.4 °F - 21.2 °F 74% 29.85 in 10.0 mi Calm Calm - N/A   Mostly Cloudy
10:16 AM 28.4 °F - 19.4 °F 69% 29.85 in 10.0 mi Calm Calm - N/A   Mostly Cloudy
10:36 AM 28.4 °F - 19.4 °F 69% 29.85 in 10.0 mi Calm Calm - N/A   Mostly Cloudy
10:56 AM 28.4 °F - 21.2 °F 74% 29.85 in 10.0 mi Calm Calm - N/A   Partly Cloudy
11:16 AM 30.2 °F - 19.4 °F 64% 29.85 in 10.0 mi Calm Calm - N/A   Partly Cloudy
11:36 AM 32.0 °F - 15.8 °F 51% 29.85 in 10.0 mi Calm Calm - N/A   Partly Cloudy
11:56 AM 32.0 °F - 15.8 °F 51% 29.84 in 10.0 mi Calm Calm - N/A   Partly Cloudy
12:16 PM 32.0 °F - 17.6 °F 55% 29.85 in 10.0 mi Calm Calm - N/A   Partly Cloudy
12:36 PM 32.0 °F - 14.0 °F 48% 29.84 in 10.0 mi Calm Calm - N/A   Partly Cloudy
12:56 PM 32.0 °F - 15.8 °F 51% 29.84 in 10.0 mi Calm Calm - N/A   Clear
1:16 PM 32.0 °F - 15.8 °F 51% 29.84 in 10.0 mi Calm Calm - N/A   Clear
1:56 PM 32.0 °F - 15.8 °F 51% 29.84 in 10.0 mi Calm Calm - N/A   Partly Cloudy
2:36 PM 30.2 °F - 21.2 °F 69% 29.84 in 10.0 mi Calm Calm - N/A   Partly Cloudy
2:56 PM 30.2 °F - 21.2 °F 69% 29.84 in 10.0 mi Calm Calm - N/A   Scattered Clouds
3:16 PM 28.4 °F - 19.4 °F 69% 29.84 in 10.0 mi Calm Calm - N/A   Scattered Clouds
3:36 PM 28.4 °F - 21.2 °F 74% 29.84 in 10.0 mi Calm Calm - N/A   Scattered Clouds
3:56 PM 28.4 °F 23.3 °F 19.4 °F 69% 29.84 in 10.0 mi South 4.6 mph - N/A   Scattered Clouds
4:16 PM 28.4 °F 24.6 °F 17.6 °F 64% 29.84 in 10.0 mi South 3.5 mph - N/A   Scattered Clouds
4:56 PM 26.6 °F - 19.4 °F 74% 29.84 in 10.0 mi Calm Calm - N/A   Scattered Clouds
5:16 PM 28.4 °F - 17.6 °F 64% 29.85 in 10.0 mi Calm Calm - N/A   Scattered Clouds
5:36 PM 28.4 °F - 19.4 °F 69% 29.85 in 10.0 mi Calm Calm - N/A   Scattered Clouds
5:56 PM 26.6 °F - 17.6 °F 69% 29.85 in 10.0 mi Calm Calm - N/A   Scattered Clouds
6:16 PM 26.6 °F - 17.6 °F 69% 29.86 in 10.0 mi Calm Calm - N/A   Scattered Clouds
6:36 PM 26.6 °F - 17.6 °F 69% 29.86 in 10.0 mi Calm Calm - N/A   Scattered Clouds
6:56 PM 26.6 °F 22.6 °F 17.6 °F 69% 29.86 in 10.0 mi SSW 3.5 mph - N/A   Scattered Clouds
7:36 PM 26.6 °F 22.6 °F 17.6 °F 69% 29.87 in 10.0 mi South 3.5 mph - N/A   Scattered Clouds
7:56 PM 26.6 °F - 17.6 °F 69% 29.87 in 10.0 mi Calm Calm - N/A   Clear
8:56 PM 24.8 °F - 17.6 °F 74% 29.88 in 10.0 mi Calm Calm - N/A   Clear
9:16 PM 24.8 °F - 17.6 °F 74% 29.89 in 10.0 mi Calm Calm - N/A   Clear
9:36 PM 26.6 °F - 17.6 °F 69% 29.89 in 10.0 mi Calm Calm - N/A   Clear
9:56 PM 26.6 °F 22.6 °F 17.6 °F 69% 29.90 in 10.0 mi SSW 3.5 mph - N/A   Clear
10:16 PM 24.8 °F 20.5 °F 17.6 °F 74% 29.91 in 10.0 mi South 3.5 mph - N/A   Clear
10:56 PM 24.8 °F - 17.6 °F 74% 29.91 in 10.0 mi Calm Calm - N/A   Clear
11:56 PM 24.8 °F 20.5 °F 17.6 °F 74% 29.92 in 10.0 mi SW 3.5 mph - N/A   Mostly Cloudy